EN

Hourly Weather Abbottabad

Today, 13 June, Sunday

Time Temperature Precipitation Wind Pressure Humidity
00:00 +22°C° 0.1 mm 3 mps 650 mmHg 58%
01:00 +22°C° 0.1 mm 3 mps 650 mmHg 56%
02:00 +22°C° 0.1 mm 3 mps 650 mmHg 54%
03:00 +23°C° 0.9 mm 2 mps 650 mmHg 58%
04:00 +21°C° 0.9 mm 2 mps 650 mmHg 62%
05:00 +21°C° 0.9 mm 2 mps 650 mmHg 66%
06:00 +23°C° 1 mm 2 mps 650 mmHg 60%
07:00 +25°C° 1 mm 2 mps 651 mmHg 53%
08:00 +27°C° 1 mm 1 mps 651 mmHg 47%
09:00 +29°C° 0.1 mm 2 mps 652 mmHg 45%
10:00 +30°C° 0.1 mm 2 mps 652 mmHg 42%
11:00 +33°C° 0.1 mm 3 mps 652 mmHg 39%
12:00 +33°C° 0 mm 3 mps 652 mmHg 36%
13:00 +34°C° 0 mm 4 mps 651 mmHg 34%
14:00 +35°C° 0 mm 5 mps 651 mmHg 32%
15:00 +34°C° 0 mm 4 mps 650 mmHg 31%
16:00 +34°C° 0 mm 4 mps 650 mmHg 30%
17:00 +34°C° 0 mm 3 mps 649 mmHg 29%
18:00 +30°C° 0.4 mm 3 mps 649 mmHg 40%
19:00 +26°C° 0.4 mm 3 mps 648 mmHg 50%
20:00 +22°C° 0.4 mm 4 mps 648 mmHg 61%
21:00 +22°C° 0.4 mm 3 mps 648 mmHg 62%
22:00 +21°C° 0.4 mm 3 mps 649 mmHg 63%
23:00 +21°C° 0.4 mm 3 mps 649 mmHg 64%

Tomorrow, 14 June, Monday

Time Temperature Precipitation Wind Pressure Humidity
00:00 +21°C° 0.7 mm 3 mps 649 mmHg 66%
01:00 +21°C° 0.7 mm 3 mps 649 mmHg 67%
02:00 +20°C° 0.7 mm 2 mps 649 mmHg 68%
03:00 +20°C° 0.2 mm 2 mps 649 mmHg 67%
04:00 +20°C° 0.2 mm 2 mps 649 mmHg 65%
05:00 +20°C° 0.2 mm 2 mps 649 mmHg 64%
06:00 +23°C° 0 mm 1 mps 649 mmHg 58%
07:00 +25°C° 0 mm 1 mps 650 mmHg 52%
08:00 +27°C° 0 mm 1 mps 651 mmHg 47%
09:00 +28°C° 0 mm 1 mps 651 mmHg 43%
10:00 +30°C° 0 mm 2 mps 651 mmHg 40%
11:00 +31°C° 0 mm 3 mps 651 mmHg 37%
12:00 +30°C° 0.5 mm 3 mps 651 mmHg 41%
13:00 +30°C° 0.5 mm 3 mps 650 mmHg 44%
14:00 +29°C° 0.5 mm 3 mps 650 mmHg 47%
15:00 +29°C° 0.2 mm 3 mps 650 mmHg 45%
16:00 +29°C° 0.2 mm 3 mps 649 mmHg 44%
17:00 +30°C° 0.2 mm 3 mps 649 mmHg 42%
18:00 +27°C° 0.4 mm 3 mps 648 mmHg 50%
19:00 +25°C° 0.4 mm 3 mps 648 mmHg 58%
20:00 +22°C° 0.4 mm 3 mps 648 mmHg 66%
21:00 +21°C° 0.2 mm 3 mps 648 mmHg 65%
22:00 +21°C° 0.2 mm 3 mps 648 mmHg 65%
23:00 +21°C° 0.2 mm 3 mps 648 mmHg 64%

Day after tomorrow, 15 June, Tuesday

Time Temperature Precipitation Wind Pressure Humidity
00:00 +20°C° 0.2 mm 3 mps 647 mmHg 64%
01:00 +20°C° 0.2 mm 3 mps 647 mmHg 64%
02:00 +20°C° 0.2 mm 3 mps 647 mmHg 64%
03:00 +20°C° 0.2 mm 3 mps 647 mmHg 64%
04:00 +20°C° 0.2 mm 3 mps 647 mmHg 64%
05:00 +20°C° 0.2 mm 3 mps 647 mmHg 64%
06:00 +21°C° 0.8 mm 3 mps 647 mmHg 60%
07:00 +24°C° 0.8 mm 2 mps 648 mmHg 57%
08:00 +25°C° 0.8 mm 2 mps 649 mmHg 54%
09:00 +25°C° 0.1 mm 2 mps 648 mmHg 53%
10:00 +26°C° 0.1 mm 2 mps 648 mmHg 52%
11:00 +26°C° 0.1 mm 2 mps 648 mmHg 51%
12:00 +27°C° 0 mm 2 mps 648 mmHg 47%
13:00 +27°C° 0 mm 2 mps 647 mmHg 43%
14:00 +28°C° 0 mm 2 mps 647 mmHg 38%
15:00 +27°C° 0.3 mm 2 mps 647 mmHg 42%
16:00 +26°C° 0.3 mm 2 mps 647 mmHg 46%
17:00 +26°C° 0.3 mm 2 mps 647 mmHg 50%
18:00 +24°C° 0.2 mm 3 mps 647 mmHg 55%
19:00 +22°C° 0.2 mm 3 mps 646 mmHg 61%
20:00 +20°C° 0.2 mm 3 mps 646 mmHg 66%
21:00 +20°C° 0.1 mm 3 mps 647 mmHg 68%
22:00 +19°C° 0.1 mm 2 mps 647 mmHg 70%
23:00 +19°C° 0.1 mm 2 mps 647 mmHg 72%

16 June, Wednesday

Time Temperature Precipitation Wind Pressure Humidity
00:00 +18°C° 0.4 mm 2 mps 647 mmHg 74%
01:00 +18°C° 0.4 mm 2 mps 648 mmHg 75%
02:00 +18°C° 0.4 mm 3 mps 648 mmHg 76%
03:00 +17°C° 0.3 mm 3 mps 648 mmHg 78%
04:00 +17°C° 0.3 mm 3 mps 648 mmHg 80%
05:00 +15°C° 0.3 mm 4 mps 648 mmHg 81%
06:00 +18°C° 0.3 mm 3 mps 649 mmHg 72%
07:00 +20°C° 0.3 mm 3 mps 650 mmHg 63%
08:00 +22°C° 0.3 mm 3 mps 650 mmHg 54%
09:00 +24°C° 0.1 mm 3 mps 651 mmHg 50%
10:00 +25°C° 0.1 mm 2 mps 651 mmHg 46%
11:00 +27°C° 0.1 mm 2 mps 651 mmHg 42%
12:00 +28°C° 0 mm 2 mps 651 mmHg 39%
13:00 +29°C° 0 mm 2 mps 651 mmHg 35%
14:00 +31°C° 0 mm 2 mps 651 mmHg 32%
15:00 +29°C° 0.5 mm 3 mps 651 mmHg 38%
16:00 +27°C° 0.5 mm 3 mps 650 mmHg 45%
17:00 +25°C° 0.5 mm 4 mps 650 mmHg 52%
18:00 +22°C° 0.6 mm 4 mps 650 mmHg 58%
19:00 +20°C° 0.6 mm 4 mps 650 mmHg 63%
20:00 +18°C° 0.6 mm 4 mps 650 mmHg 68%
21:00 +18°C° 0 mm 4 mps 650 mmHg 65%
22:00 +19°C° 0 mm 4 mps 649 mmHg 63%
23:00 +19°C° 0 mm 3 mps 649 mmHg 60%

17 June, Thursday

Time Temperature Precipitation Wind Pressure Humidity
00:00 +19°C° 0 mm 3 mps 649 mmHg 58%
01:00 +18°C° 0 mm 3 mps 649 mmHg 55%
02:00 +18°C° 0 mm 4 mps 649 mmHg 53%
03:00 +18°C° 0 mm 3 mps 649 mmHg 52%
04:00 +18°C° 0 mm 3 mps 649 mmHg 51%
05:00 +18°C° 0 mm 2 mps 649 mmHg 51%
06:00 +20°C° 0 mm 2 mps 649 mmHg 47%
07:00 +23°C° 0 mm 2 mps 650 mmHg 44%
08:00 +25°C° 0 mm 2 mps 651 mmHg 41%
09:00 +27°C° 0 mm 2 mps 651 mmHg 36%
10:00 +29°C° 0 mm 1 mps 651 mmHg 31%
11:00 +31°C° 0 mm 1 mps 652 mmHg 26%
12:00 +31°C° 0 mm 1 mps 651 mmHg 24%
13:00 +32°C° 0 mm 2 mps 651 mmHg 23%
14:00 +32°C° 0 mm 2 mps 651 mmHg 22%
15:00 +32°C° 0 mm 2 mps 651 mmHg 24%
16:00 +31°C° 0 mm 2 mps 650 mmHg 26%
17:00 +31°C° 0 mm 2 mps 650 mmHg 28%
18:00 +29°C° 0 mm 2 mps 650 mmHg 34%
19:00 +27°C° 0 mm 3 mps 650 mmHg 39%
20:00 +24°C° 0 mm 3 mps 650 mmHg 45%
21:00 +24°C° 0 mm 3 mps 650 mmHg 45%
22:00 +22°C° 0 mm 3 mps 650 mmHg 46%
23:00 +22°C° 0 mm 3 mps 650 mmHg 46%

18 June, Friday

Time Temperature Precipitation Wind Pressure Humidity
00:00 +21°C° 0 mm 3 mps 650 mmHg 47%
01:00 +21°C° 0 mm 3 mps 650 mmHg 47%
02:00 +21°C° 0 mm 3 mps 650 mmHg 48%
03:00 +21°C° 0 mm 3 mps 650 mmHg 48%
04:00 +20°C° 0 mm 3 mps 650 mmHg 47%
05:00 +20°C° 0 mm 3 mps 650 mmHg 47%
06:00 +24°C° 0 mm 3 mps 651 mmHg 43%
07:00 +26°C° 0 mm 2 mps 652 mmHg 38%
08:00 +28°C° 0 mm 1 mps 652 mmHg 33%
09:00 +30°C° 0 mm 2 mps 653 mmHg 29%
10:00 +31°C° 0 mm 2 mps 653 mmHg 26%
11:00 +34°C° 0 mm 2 mps 653 mmHg 22%
12:00 +34°C° 0 mm 2 mps 653 mmHg 20%
13:00 +35°C° 0 mm 3 mps 652 mmHg 18%
14:00 +35°C° 0 mm 3 mps 652 mmHg 17%
15:00 +35°C° 0 mm 3 mps 652 mmHg 16%
16:00 +35°C° 0 mm 2 mps 651 mmHg 16%
17:00 +35°C° 0 mm 2 mps 651 mmHg 15%
18:00 +32°C° 0 mm 2 mps 651 mmHg 19%
19:00 +30°C° 0 mm 2 mps 651 mmHg 23%
20:00 +27°C° 0 mm 1 mps 650 mmHg 26%
21:00 +27°C° 0 mm 2 mps 651 mmHg 29%
22:00 +26°C° 0 mm 2 mps 651 mmHg 32%
23:00 +25°C° 0 mm 3 mps 651 mmHg 35%
Show more